Regional Weather Roundup
Issued by NWS

Home | Current Version | Previous Version | Graphics & Text | Print | Product List | Glossary On
Versions: 1 2 3 4 5 6 7 8 9 10 11 12 13 14 15 16 17 18 19 20 21 22 23 24 25 26 27 28 29 30 31 32 33 34 35 36 37 38 39 40 41 42 43 44 45 46 47 48 49 50
203
ASUS43 KDMX 182001
RWRIA

WEATHER ROUNDUP FOR IOWA
NATIONAL WEATHER SERVICE DES MOINES IA
200 PM CST WED JAN 18 2017

NOTE: "FAIR" INDICATES FEW OR NO CLOUDS BELOW 12,000 FEET WITH NO
SIGNIFICANT WEATHER AND/OR OBSTRUCTIONS TO VISIBILITY.

* - THESE STATIONS ARE NOT NWS STATIONS...THUS NOT UNDER NWS
QUALITY CONTROL.  THEY ALSO DO NOT REPORT WEATHER SUCH
AS PRECIPITATION OR FOG.

IAZ001>003-012>014-020>022-031>034-043>046-182100-
   NORTHWEST IOWA

CITY           SKY/WX    TMP DP  RH WIND       PRES   REMARKS
CARROLL *      SUNNY     46  41  81 S13       29.91F
CHEROKEE *     SUNNY     46  42  83 S8        29.88F
DENISON *      SUNNY     46  39  76 SW13G20   29.89F
LE MARS *      SUNNY     46  41  81 S13       29.87F
ORANGE CITY *  SUNNY     45  39  81 S12       29.85F
SHELDON *      SUNNY     43  43 100 S12       29.83F
SIOUX CITY     SUNNY     50  40  68 SW10      29.88F
SPENCER        SUNNY     42  38  85 S8        29.86F
STORM LAKE *   SUNNY     43  39  87 SW16      29.89S
$$

IAZ055>058-069>071-079>083-090>094-182100-
   SOUTHWEST IOWA

CITY           SKY/WX    TMP DP  RH WIND       PRES   REMARKS
ATLANTIC *     SUNNY     46  41  81 S15       29.95F
AUDUBON *      SUNNY     46  39  76 S12       29.94F
CLARINDA *     SUNNY     46  41  81 S12       30.01F
COUNCIL BLFS * SUNNY     48  39  71 S13G22    29.93F
CRESTON *      SUNNY     41  37  87 S15G23    29.99F
HARLAN  *      SUNNY     46  41  81 S16G24    29.96F
LAMONI         PTSUNNY   36  35  96 S12       30.02F WCI  28
RED OAK *      SUNNY     46  39  76 S14G21    29.98F
SHENANDOAH *   SUNNY     46  41  81 S14       29.99F
$$

IAZ047>049-059>061-072>074-084-182100-
   CENTRAL IOWA

CITY           SKY/WX    TMP DP  RH WIND       PRES   REMARKS
AMES           SUNNY     46  39  76 S12       29.96F
ANKENY *       SUNNY     46  37  71 S14       29.98F
BOONE *        SUNNY     46  39  76 S12G17    29.93F
CHARITON *     SUNNY     41  37  87 S13       30.00F
DES MOINES     MOSUNNY   47  38  71 S16       29.98F
GRINNELL*      MOSUNNY   40  38  93 S13       30.00F WCI  32
KNOXVILLE *    SUNNY     45  36  70 S15G22    29.99F
MARSHALLTOWN   SUNNY     39  35  86 S8        29.97F WCI  33
NEWTON *       SUNNY     41  37  87 S12       29.97F
PELLA *        SUNNY     46  37  70 S13       30.01F
PERRY *          N/A     47  42  82 S15       29.94F
$$

IAZ004>006-015-016-023>025-035-036-182100-
   NORTH CENTRAL IOWA

CITY           SKY/WX    TMP DP  RH WIND       PRES   REMARKS
ALGONA *       SUNNY     43  37  81 SW16      29.89F
CLARION *      SUNNY     39  39 100 S12       29.92F WCI  32
ESTHERVILLE    SUNNY     40  37  89 SW10      29.86F WCI  33
FORT DODGE *   SUNNY     43  36  75 S12       29.94S
MASON CITY     SUNNY     35  32  88 S10       29.92F WCI  27
FOREST CITY *    N/A     37  37 100 S9        29.90F WCI  31
WEBSTER CITY * SUNNY     41  39  93 S12       29.91F
IOWA FALLS *     N/A     35  34  96 S8        29.96F WCI  29
$$

IAZ007>011-017>019-026>030-037>042-050>054-066-182100-
   NORTHEAST IOWA

CITY           SKY/WX    TMP DP  RH WIND       PRES   REMARKS
CEDAR RAPIDS   CLOUDY    35  33  92 S14       30.01F FOG     WCI  26
CHARLES CITY * CLOUDY    32  32 100 S13       29.95F FOG     WCI  22
CLINTON *      PTSUNNY   38  34  85 SW13      30.05F WCI  30
DECORAH *      CLOUDY    32  30  93 SW8       29.96F FOG     WCI  25
DUBUQUE        CLOUDY    34  31  88 SW12      30.01F FOG     WCI  25
MONTICELLO *   CLOUDY    34  32  93 S9        30.02F FOG     WCI  26
OELWEIN *      CLOUDY    32  32 100 S13       29.98F FOG     WCI  22
WATERLOO       PTSUNNY   36  33  89 MISG      29.98F
$$

IAZ064-065-067-068-078-182100-
   EAST CENTRAL IOWA

CITY           SKY/WX    TMP DP  RH WIND       PRES   REMARKS
DAVENPORT      PTSUNNY   36  32  85 SW14      30.06S FOG     WCI  27
IOWA CITY      CLOUDY    38  34  85 SW9       30.06F WCI  31
MUSCATINE *    CLOUDY    41  36  81 S12       30.06F
QUAD CITIES    CLOUDY    38  32  79 SW10G21   30.06F WCI  31
$$

IAZ062-063-075>077-085>089-095>099-182100-
   SOUTHEAST IOWA

CITY           SKY/WX    TMP DP  RH WIND       PRES   REMARKS
BURLINGTON     MOSUNNY   41  37  86 SW17      30.07F
FAIRFIELD *    MOSUNNY   41  36  81 S12       30.04F
FORT MADISON * MOSUNNY   45  39  81 SW10      30.08F
KEOKUK *       PTSUNNY   43  37  81 SW9       30.07F
OSKALOOSA *      N/A     43  38  82 S13       30.02F
OTTUMWA        SUNNY     44  36  73 S14       30.02F
WASHINGTON *   SUNNY     41  37  87 S12       30.05F
$$

ABBREVIATIONS USED IN REMARKS
   TC - TEMPERATURES IN CELSIUS
  WCI - WIND CHILL INDEX
   HX - HEAT INDEX
  VSB - VISIBILITY
$$





USA.gov is the U.S. government's official web portal to all federal, state and local government web resources and services.